Location: Dealu Mare
(46.0500°N, 22.8167°E)
Time: 23:07:05
(UTC+00:00)

Cosmos 2181 Rocket - Pass Details

Date: 15 January 2026
Orbit: 952 x 1013 km, 82.9° (Epoch: 13 February)

Event Time Altitude Azimuth Distance (km) Brightness Sun altitude
Rises 03:25:02 0° 352° (N) 3,716 6.9 -27.5°
Reaches altitude 10° 03:27:34 10° 355° (N) 2,771 6.3 -27.1°
Maximum altitude 03:33:57 72° 80° (E) 1,055 4.2 -26.0°
Drops below altitude 10° 03:40:20 10° 165° (SSE) 2,783 6.6 -24.9°
Sets 03:42:53 0° 167° (SSE) 3,732 7.3 -24.4°
